Temperature
16 16 16 16 16 16 17 17 17 17 17 17 17 17 17 17 17 17 17 17 16 16 16 16 16 16 16 16 16 16 15 15 15 15 15 15 15 15 15 15 14 14 14
16 16 16 16 16 16 17 17 17 17 17 17 17 17 17 17 17 17 17 17 16 16 16 16 16 16 16 16 16 16 16 16 15 15 15 15 15 15 14 14 14 14 14
16 16 16 16 16 16 16 16 17 17 17 17 16 17 17 17 17 17 17 16 16 16 16 16 16 16 16 16 16 16 16 15 15 15 15 15 14 14 14 14 14 14 14
15 15 16 16 16 16 16 16 16 16 16 16 16 16 16 16 16 16 16 16 16 16 16 16 16 16 16 16 15 16 15 15 15 15 15 15 14 14 14 14 14 14 14
15 15 15 16 16 16 16 16 16 16 16 16 16 16 16 16 16 16 16 16 16 16 16 16 16 15 15 15 15 15 15 15 15 15 15 15 14 14 14 14 13 13 13
15 15 15 15 15 16 16 16 16 16 16 16 16 16 16 16 16 16 16 16 16 16 16 16 15 15 15 15 15 15 15 15 15 15 15 14 14 14 14 14 14 14 13
15 15 15 15 15 15 15 15 16 16 16 16 16 16 16 16 16 16 16 16 16 16 16 16 15 15 15 15 15 15 15 15 15 15 15 14 14 14 14 14 14 14 13
14 15 15 15 15 15 15 15 15 15 16 15 15 15 16 16 16 16 16 16 16 15 15 15 15 15 15 15 15 15 15 15 15 15 14 14 14 14 14 14 14 14 13
14 14 14 15 15 15 15 15 15 15 15 15 15 15 15 15 15 15 15 15 15 15 15 15 15 15 15 15 15 15 15 15 15 14 14 14 14 14 14 14 14 14 13
13 14 14 14 14 14 15 15 15 15 15 15 15 15 15 15 15 15 15 15 15 15 15 15 15 15 15 15 15 15 15 15 14 14 14 14 14 14 14 14 14 14 13
13 13 13 13 14 14 14 14 15 15 15 15 15 15 15 15 15 15 15 15 15 15 15 15 15 15 15 15 15 15 14 14 14 14 14 14 14 14 14 14 14 14 14
13 13 13 13 13 13 13 14 14 14 14 14 15 15 15 14 15 15 15 15 15 15 15 14 14 14 15 14 14 14 14 14 14 14 14 14 14 14 14 14 14 14 13
12 12 12 12 12 13 13 13 13 14 14 14 14 14 14 14 14 14 14 14 14 14 14 14 14 14 14 14 14 14 14 14 14 14 14 14 14 14 14 14 14 14 14
11 11 11 12 12 12 12 13 13 13 13 14 14 14 14 14 14 14 14 14 14 14 14 14 14 14 14 14 14 14 14 14 14 14 14 14 14 14 14 14 14 14 14
11 11 11 11 11 12 12 12 12 13 13 13 13 13 13 14 14 14 14 14 14 14 14 14 14 14 14 14 14 14 14 14 14 14 14 14 13 14 14 14 14 14 14
10 10 10 11 11 11 11 12 12 12 12 13 13 13 13 13 13 13 14 14 14 14 14 14 14 14 14 14 14 14 14 14 14 14 14 14 13 13 14 14 14 13 13
10 10 10 10 10 11 11 11 11 12 12 12 12 12 13 13 13 13 13 13 13 13 13 13 13 13 13 13 13 13 13 14 13 13 14 14 14 13 13 13 13 13 13
9 9 9 10 10 10 11 11 11 11 11 11 12 12 12 12 12 12 12 13 13 13 13 13 13 13 13 13 13 13 13 13 13 13 13 13 14 13 13 13 13 13 13
9 9 9 9 9 10 10 10 10 11 11 11 11 11 11 12 12 12 12 12 12 12 13 13 13 13 13 13 13 13 13 13 13 13 13 13 13 13 13 13 13 13 13
8 8 9 9 9 9 10 10 10 10 10 10 10 11 11 11 11 11 11 12 12 12 12 12 12 12 12 12 12 12 13 13 13 13 13 13 13 13 13 13 13 13 12
8 8 8 8 9 9 9 9 9 10 10 10 10 10 10 11 11 11 11 11 11 12 12 12 12 12 12 12 12 12 12 12 12 13 13 13 13 13 13 13 13 12 12
8 8 8 8 8 8 8 8 8 9 9 9 10 10 10 10 10 10 11 11 11 11 11 12 12 12 12 12 11 11 11 11 12 12 12 12 12 12 12 12 12 12 12
7 7 7 7 8 8 8 8 8 8 8 9 9 9 9 10 10 10 10 10 11 11 11 11 11 11 11 11 11 11 11 11 11 12 12 12 12 12 12 12 12 12 12
7 7 7 7 7 7 7 7 7 7 8 8 8 8 9 9 9 9 9 10 10 10 10 10 11 11 11 11 11 11 11 11 11 11 11 12 12 12 12 12 12 12 12
7 7 7 7 7 7 7 7 7 7 7 7 7 8 8 8 9 9 9 9 9 10 10 10 10 10 10 10 10 10 10 10 10 10 10 11 11 12 12 12 12 11 11
7 6 6 6 6 6 6 6 6 6 6 7 7 7 8 8 8 8 8 9 9 9 9 9 9 9 10 10 10 10 10 10 10 10 10 10 10 11 11 11 11 11 11
Wind_Speed
3 4 1 4 7 9 10 9 9 10 11 11 12 13 13 14 14 14 13 13 12 12 12 12 12 13 14 14 14 14 14 14 14 14 14 14 14 14 14 13 13 13 14
3 3 2 4 6 8 9 10 9 9 9 10 11 12 12 13 13 13 13 12 12 12 11 12 12 13 13 14 14 14 14 14 14 14 14 13 13 13 13 12 12 12 13
2 3 3 4 5 6 8 8 9 9 9 9 10 10 11 12 12 12 12 12 12 11 11 11 12 12 13 14 14 14 14 13 13 13 12 11 11 12 12 11 12 13 13
3 4 4 5 4 5 5 7 8 8 8 8 9 9 10 11 11 11 11 11 11 11 11 12 12 12 13 13 13 13 13 12 11 11 9 8 9 11 11 11 11 12 12
5 6 6 6 5 4 4 4 5 7 8 8 8 9 9 9 11 11 11 10 11 11 11 12 12 12 12 13 13 12 11 11 10 9 8 7 7 9 10 10 10 10 11
5 7 7 6 5 4 3 2 2 3 5 7 8 9 9 9 10 11 10 10 11 11 11 12 12 12 12 12 12 11 11 11 11 9 7 6 6 8 10 10 9 9 10
5 7 7 7 5 4 3 2 0 1 2 4 6 8 9 10 9 10 10 11 11 11 11 12 12 12 12 11 11 11 12 11 10 8 7 6 7 8 9 9 9 9 9
4 6 7 6 6 5 4 2 2 2 3 3 4 7 9 9 10 10 10 11 12 12 12 12 12 13 12 12 11 11 12 11 9 8 6 6 7 8 8 8 8 8 8
6 6 7 7 6 6 5 4 3 2 3 3 4 5 7 9 10 10 10 11 12 13 12 13 13 13 13 12 12 11 12 11 10 8 6 6 7 8 8 8 7 8 8
6 6 6 7 7 6 5 5 5 4 4 4 4 4 6 8 10 11 11 11 12 13 13 13 13 13 12 12 12 11 11 11 10 8 7 7 8 8 8 7 7 7 7
7 6 6 6 7 6 5 5 5 5 4 4 4 4 5 6 8 9 10 11 12 13 14 14 13 13 12 12 11 11 10 9 9 8 8 8 9 9 8 8 7 7 7
7 7 5 5 6 6 6 5 4 4 3 3 3 3 4 5 6 8 10 11 12 13 14 14 14 13 11 9 10 10 8 8 9 8 9 10 10 10 9 9 8 8 7
5 6 6 5 5 5 4 4 4 3 3 3 3 3 3 4 4 5 6 8 10 11 11 12 11 10 9 8 8 8 8 8 8 8 9 11 11 11 10 10 10 9 8
6 7 7 6 5 5 4 4 3 3 2 2 2 3 2 2 3 4 4 5 6 8 7 8 7 8 9 9 9 8 8 8 8 9 10 12 12 12 11 11 11 11 10
6 7 7 6 6 5 4 3 3 3 3 3 3 3 3 3 3 4 4 5 6 7 7 7 7 7 8 8 8 8 7 8 9 9 10 12 12 12 12 12 12 12 11
6 7 7 7 6 5 4 3 3 3 3 3 3 4 4 4 3 3 4 5 6 7 8 8 8 7 7 6 7 8 8 8 8 9 10 11 13 13 14 13 13 13 12
6 7 7 7 6 5 5 4 3 3 3 3 3 4 4 4 4 4 3 4 5 7 8 7 7 6 5 6 6 7 7 7 8 9 10 11 11 13 15 15 14 14 13
6 7 8 7 7 6 5 4 3 3 3 3 3 3 3 4 4 3 4 4 4 5 6 6 7 6 6 6 6 5 5 6 7 9 10 10 11 11 13 16 16 15 15
6 7 7 7 6 6 6 4 4 3 2 2 3 3 3 3 3 3 3 3 4 4 5 6 6 6 6 6 6 5 5 5 6 7 8 10 11 11 12 14 16 16 15
6 7 7 7 6 6 5 4 3 3 3 2 3 3 4 3 3 2 3 3 3 4 5 6 6 6 6 5 5 5 5 5 5 6 7 8 9 11 12 12 13 14 15
6 7 7 7 7 5 4 4 3 3 3 3 3 4 4 4 3 3 3 2 3 4 6 7 5 6 6 4 3 3 3 4 6 6 5 5 6 9 10 11 11 11 12
6 7 7 7 7 6 4 4 3 3 3 3 3 3 3 3 3 3 3 3 3 4 5 6 5 4 4 5 3 3 3 3 5 6 6 6 6 5 6 8 9 10 11
7 8 8 8 7 6 5 4 3 3 3 3 3 3 3 3 3 3 3 3 4 4 4 5 6 6 5 5 4 4 3 4 2 3 6 6 6 5 5 6 8 10 11
7 7 7 7 7 6 5 3 3 3 3 4 3 3 3 4 4 3 3 3 4 4 4 4 5 5 6 6 4 3 2 2 3 2 2 4 6 6 6 5 6 9 11
6 6 7 7 7 6 5 4 3 3 3 3 3 3 3 3 3 3 3 3 3 3 4 4 5 5 5 6 4 3 2 2 2 3 3 3 3 5 5 6 5 7 9
5 6 6 7 7 6 5 4 3 4 4 4 4 4 3 3 2 3 3 2 3 3 4 5 5 6 6 6 5 4 4 3 3 3 4 4 4 4 5 5 6 6 8
Wind_Direction
320 317 8 129 147 147 142 140 134 129 125 126 130 133 134 136 137 137 137 136 132 129 127 124 120 119 117 115 113 110 106 103 101 99 98 96 96 95 92 89 87 86 89
297 331 62 113 137 148 146 145 141 138 135 134 135 139 140 140 141 143 143 141 139 137 134 131 127 124 122 119 117 114 110 108 104 100 97 96 98 98 97 96 95 94 92
355 13 62 98 112 140 153 149 149 148 148 148 147 144 147 148 148 148 149 148 146 143 140 137 134 130 127 124 123 120 117 114 109 105 101 102 104 105 103 101 99 96 94
17 33 58 75 94 115 139 158 159 156 159 161 159 155 155 157 157 156 155 153 151 150 146 142 138 137 134 131 129 126 124 120 114 109 103 106 113 113 110 105 100 97 96
29 30 45 62 64 86 112 139 165 168 168 171 172 169 167 167 166 164 161 158 156 155 151 147 145 143 140 138 136 134 132 129 123 115 110 113 119 118 114 109 104 102 99
27 28 37 54 57 59 75 106 148 177 186 185 187 184 180 177 175 174 170 165 162 161 158 155 152 149 147 145 144 142 140 137 130 123 122 127 129 125 120 117 114 112 106
17 20 32 38 39 43 42 42 13 209 205 205 202 199 193 190 185 182 178 173 170 168 168 164 162 158 155 153 151 149 147 144 140 135 136 144 147 138 132 128 125 120 114
25 17 21 28 28 23 15 2 333 284 243 223 214 209 205 198 195 191 187 181 178 176 175 172 169 167 165 159 157 155 152 149 150 150 154 162 163 148 143 140 135 129 122
27 22 15 13 12 9 3 345 318 302 278 248 233 217 213 207 201 197 192 192 187 184 182 180 176 174 172 167 164 161 159 158 156 162 167 176 179 164 153 150 148 140 134
22 18 10 3 1 358 348 338 326 301 287 264 248 238 223 215 207 203 196 199 197 192 187 185 183 180 177 172 168 166 164 162 164 170 178 187 190 180 169 163 159 152 147
7 1 2 358 354 348 339 334 330 310 289 270 257 246 231 217 209 207 201 203 202 198 193 190 189 186 181 176 172 170 167 169 173 180 190 197 197 192 181 175 172 168 164
348 344 351 348 345 344 337 339 334 316 297 273 260 251 232 214 210 209 205 203 206 202 198 196 194 190 182 176 176 173 173 178 181 191 201 204 203 200 192 187 185 183 181
332 336 340 338 341 342 340 337 335 323 305 277 258 250 243 221 212 210 202 205 207 203 200 200 195 191 181 177 177 179 181 183 191 200 209 211 212 209 203 197 195 194 194
338 333 334 336 335 333 334 328 326 327 319 305 275 246 235 231 220 210 205 201 202 200 196 195 191 190 185 184 184 186 188 193 200 205 213 215 216 216 214 207 205 204 204
338 333 329 328 327 328 327 320 324 315 304 291 285 262 236 231 228 224 217 209 205 200 196 194 192 191 189 187 190 194 198 200 204 208 214 216 217 218 219 216 211 211 212
334 327 325 326 326 329 318 306 305 305 301 296 286 269 247 234 225 218 219 216 212 207 201 197 196 196 197 193 196 200 204 204 207 209 214 218 219 219 220 222 219 218 218
328 325 327 326 332 328 317 306 313 309 307 301 293 280 262 243 225 217 216 218 219 211 202 197 198 195 198 199 203 205 206 208 208 212 215 218 221 222 222 224 225 224 223
332 330 328 330 330 327 321 314 315 313 309 303 302 299 287 260 232 216 216 224 225 210 199 196 195 200 205 205 209 210 209 208 211 213 214 216 218 221 224 227 229 229 228
329 327 327 327 327 325 322 317 313 309 295 304 312 306 299 284 250 216 216 223 219 208 202 201 198 199 205 209 213 214 211 211 213 213 214 216 216 219 222 227 229 231 230
330 330 327 329 330 328 323 319 313 305 303 314 303 294 288 280 263 233 217 219 214 212 205 204 200 199 200 203 212 219 217 216 213 212 216 218 217 219 222 224 227 232 230
337 336 331 332 333 335 334 328 320 311 303 296 287 284 279 276 259 232 227 208 209 220 214 203 202 202 204 188 189 222 239 223 219 219 215 214 216 217 219 224 225 225 230
338 333 329 332 331 329 325 310 295 299 293 283 284 289 283 284 272 240 220 220 216 220 223 207 196 206 208 190 185 179 222 237 231 222 215 216 219 212 217 223 225 225 227
335 331 330 328 327 328 328 321 319 322 311 303 298 288 295 292 281 259 229 222 223 216 220 213 202 203 208 207 194 186 191 218 224 227 220 218 216 212 216 223 226 230 229
324 327 329 330 334 335 336 328 319 312 298 292 297 295 305 300 287 268 252 232 223 213 214 220 215 205 202 209 210 215 207 170 190 230 238 225 219 219 219 224 229 233 232
326 333 334 336 338 339 341 334 316 306 297 302 311 307 302 296 291 286 267 242 224 215 212 215 215 208 209 209 206 204 217 219 199 204 235 237 238 232 227 225 223 231 235
333 337 340 342 341 344 344 340 321 307 310 315 318 310 306 303 292 287 273 244 237 226 217 216 213 212 214 212 208 203 199 200 203 198 220 221 230 236 235 227 223 230 235
Height
1514 1514 1515 1517 1518 1519 1520 1521 1522 1523 1525 1526 1527 1528 1529 1530 1531 1532 1532 1533 1534 1535 1536 1537 1538 1539 1540 1540 1541 1541 1542 1543 1543 1543 1544 1544 1544 1545 1545 1545 1545 1545 1546
1514 1514 1515 1517 1518 1519 1520 1521 1523 1524 1525 1526 1527 1528 1529 1530 1531 1532 1533 1534 1535 1536 1537 1538 1538 1539 1540 1541 1541 1542 1543 1543 1544 1544 1545 1545 1545 1545 1546 1546 1546 1547 1547
1514 1515 1516 1517 1518 1519 1520 1522 1522 1524 1525 1526 1527 1528 1529 1530 1531 1532 1533 1534 1535 1536 1537 1538 1539 1540 1541 1541 1542 1543 1543 1544 1545 1545 1546 1546 1546 1546 1547 1547 1548 1548 1548
1514 1514 1515 1517 1518 1519 1520 1521 1522 1523 1524 1526 1527 1528 1529 1530 1531 1532 1533 1534 1535 1536 1537 1538 1539 1540 1541 1542 1543 1543 1544 1545 1545 1546 1546 1547 1547 1547 1548 1548 1549 1549 1549
1513 1514 1515 1516 1517 1518 1519 1521 1522 1523 1524 1525 1526 1527 1528 1529 1531 1532 1533 1534 1535 1536 1537 1538 1539 1540 1541 1542 1543 1544 1545 1545 1546 1546 1547 1547 1548 1548 1549 1549 1549 1550 1550
1513 1514 1515 1516 1517 1518 1518 1519 1520 1522 1523 1524 1525 1527 1528 1529 1530 1531 1532 1533 1535 1536 1537 1538 1539 1540 1541 1542 1543 1544 1545 1546 1546 1547 1547 1548 1548 1549 1549 1549 1550 1550 1551
1513 1514 1514 1515 1516 1517 1517 1518 1519 1520 1521 1522 1524 1525 1526 1527 1529 1530 1531 1533 1534 1535 1536 1538 1539 1540 1541 1542 1543 1544 1545 1546 1547 1547 1548 1548 1549 1549 1550 1550 1550 1551 1551
1512 1513 1513 1514 1514 1515 1516 1517 1517 1518 1519 1521 1522 1523 1524 1526 1527 1528 1530 1531 1533 1534 1535 1537 1538 1539 1541 1542 1543 1544 1545 1546 1547 1547 1548 1549 1549 1550 1550 1550 1551 1551 1551
1511 1511 1511 1512 1512 1513 1514 1514 1515 1516 1517 1518 1519 1521 1522 1524 1525 1526 1528 1529 1531 1533 1534 1536 1537 1538 1540 1541 1542 1543 1544 1545 1546 1547 1548 1549 1549 1550 1550 1551 1551 1551 1552
1509 1509 1509 1510 1510 1511 1511 1512 1512 1513 1514 1515 1517 1518 1519 1521 1523 1524 1526 1527 1529 1531 1532 1534 1536 1537 1538 1540 1541 1542 1544 1545 1546 1547 1548 1548 1549 1550 1550 1551 1551 1551 1552
1507 1507 1507 1507 1507 1507 1508 1508 1509 1510 1511 1512 1513 1515 1516 1518 1520 1521 1523 1525 1526 1528 1530 1532 1534 1535 1537 1538 1540 1541 1542 1544 1545 1546 1547 1548 1549 1549 1550 1550 1551 1551 1551
1504 1504 1504 1504 1504 1504 1504 1505 1505 1506 1507 1508 1510 1511 1513 1514 1516 1518 1520 1522 1524 1525 1527 1529 1531 1533 1535 1536 1538 1539 1540 1542 1543 1545 1546 1547 1548 1548 1549 1549 1550 1551 1551
1502 1502 1501 1501 1500 1500 1501 1501 1501 1502 1503 1504 1505 1507 1509 1510 1512 1514 1516 1518 1520 1522 1524 1526 1528 1530 1532 1534 1535 1537 1538 1540 1541 1543 1544 1545 1546 1547 1548 1548 1549 1549 1550
1500 1499 1498 1497 1497 1496 1497 1497 1497 1498 1499 1500 1501 1503 1504 1506 1508 1510 1512 1514 1516 1518 1520 1522 1524 1527 1529 1530 1532 1534 1536 1537 1539 1540 1542 1543 1544 1545 1546 1547 1547 1548 1548
1497 1496 1495 1494 1493 1493 1492 1493 1493 1493 1494 1495 1496 1498 1499 1501 1503 1505 1507 1510 1512 1514 1516 1518 1521 1523 1525 1527 1529 1531 1532 1534 1536 1537 1539 1540 1542 1543 1543 1544 1545 1546 1546
1494 1493 1492 1490 1490 1489 1488 1488 1488 1489 1490 1490 1491 1493 1495 1497 1498 1500 1502 1505 1507 1509 1511 1514 1516 1519 1521 1523 1525 1527 1529 1531 1532 1534 1536 1537 1538 1540 1541 1541 1542 1543 1544
1492 1490 1488 1487 1486 1485 1484 1484 1484 1484 1485 1486 1487 1488 1490 1492 1493 1495 1498 1500 1502 1504 1506 1509 1512 1515 1517 1519 1520 1522 1524 1526 1528 1530 1532 1533 1535 1536 1537 1538 1539 1540 1541
1490 1487 1485 1484 1482 1481 1481 1480 1480 1480 1481 1481 1482 1483 1485 1486 1488 1490 1492 1495 1497 1499 1501 1503 1506 1509 1512 1514 1516 1518 1520 1522 1524 1526 1527 1529 1530 1532 1533 1534 1535 1536 1537
1487 1485 1482 1481 1479 1478 1477 1477 1476 1476 1477 1477 1478 1479 1480 1482 1483 1485 1487 1490 1492 1494 1496 1499 1501 1504 1506 1509 1511 1513 1515 1517 1519 1521 1522 1524 1526 1527 1528 1530 1531 1532 1533
1485 1483 1480 1478 1476 1475 1474 1473 1472 1472 1472 1473 1473 1474 1475 1477 1478 1480 1483 1485 1487 1489 1491 1494 1496 1498 1501 1504 1506 1508 1510 1512 1513 1515 1517 1519 1521 1522 1523 1525 1526 1527 1528
1483 1480 1478 1475 1473 1471 1470 1469 1468 1468 1468 1468 1469 1470 1471 1472 1474 1475 1477 1479 1482 1484 1486 1488 1490 1493 1496 1499 1501 1503 1504 1506 1507 1509 1511 1513 1515 1516 1518 1519 1520 1522 1523
1481 1478 1475 1473 1470 1468 1467 1466 1465 1464 1464 1464 1465 1466 1466 1468 1469 1470 1472 1474 1476 1479 1481 1482 1485 1488 1490 1493 1495 1497 1499 1501 1501 1503 1505 1507 1509 1510 1512 1513 1515 1516 1517
1478 1476 1473 1470 1468 1466 1464 1463 1462 1461 1461 1461 1460 1461 1462 1463 1464 1466 1467 1469 1471 1474 1475 1477 1479 1482 1485 1488 1490 1492 1492 1492 1494 1497 1498 1500 1502 1504 1505 1507 1509 1510 1512
1477 1474 1471 1468 1466 1463 1461 1460 1459 1458 1457 1457 1457 1457 1458 1459 1460 1461 1463 1464 1466 1468 1470 1472 1475 1476 1479 1481 1484 1486 1487 1487 1490 1490 1492 1494 1496 1498 1499 1501 1502 1504 1506
1475 1472 1469 1467 1464 1461 1459 1458 1457 1456 1455 1454 1454 1454 1454 1455 1456 1457 1458 1459 1460 1462 1464 1467 1469 1471 1473 1475 1477 1479 1482 1483 1483 1485 1486 1488 1490 1491 1493 1495 1496 1498 1499
1473 1471 1468 1465 1462 1459 1457 1456 1454 1454 1453 1452 1451 1450 1450 1451 1451 1452 1453 1454 1455 1457 1459 1461 1463 1466 1468 1470 1472 1473 1475 1477 1477 1479 1480 1481 1482 1485 1487 1488 1490 1491 1493